Flight Track Log - Related Links

Times and Time Zones

All times are in EST time to prevent confusion due to time zone crossing. See the N121JM flight status page for this flight to view local times or setup timezone preferences in your user account.

Time Position Orientation Groundspeed Altitude Reporting Facility
EST Latitude Longitude Course Direction KTS MPH feet Rate Location/Type
Wed 11:20:41 AM 39.6665 -75.6832 255° West 185 213 2,300  Level FlightAware ADS-B (KWWD)
Wed 11:21:01 AM 39.6619 -75.7055 255° West 193 222 2,500 857 Climbing FlightAware ADS-B (KWWD)
Wed 11:21:09 AM 39.6612 -75.7149 265° West 187 215 2,700 1,333 Climbing FlightAware ADS-B (KWWD)
Wed 11:21:19 AM 39.6630 -75.7257 282° West 191 220 2,900 1,800 Climbing FlightAware ADS-B (KWWD)
Wed 11:21:39 AM 39.6733 -75.7441 306° West 192 221 3,600 1,688 Climbing FlightAware ADS-B (KWWD)
Wed 11:21:51 AM 39.6826 -75.7506 332° Northwest 199 229 3,800 900 Climbing FlightAware ADS-B (KWWD)
Wed 11:21:59 AM 39.6909 -75.7527 349° North 214 246 3,900 1,034 Climbing FlightAware ADS-B (KWWD)
Wed 11:22:20 AM 39.7121 -75.7491 North 235 270 4,300 714 Climbing FlightAware ADS-B (KWWD)
Wed 11:22:41 AM 39.7351 -75.7389 19° North 244 281 4,400 120 Climbing FlightAware ADS-B (KWWD)
Wed 11:23:10 AM 39.7673 -75.7261 17° North 249 287 4,400  Level FlightAware ADS-B (KWWD)
Wed 11:23:27 AM 39.7869 -75.7191 15° North 255 293 4,400  Level FlightAware ADS-B (KWWD)
Wed 11:23:49 AM 39.8116 -75.7102 16° North 250 288 4,400  Level FlightAware ADS-B (KWWD)
Wed 11:24:09 AM 39.8352 -75.7015 16° North 256 295 4,400  Level FlightAware ADS-B (KWWD)
Wed 11:24:30 AM 39.8590 -75.6925 16° North 252 290 4,400  Level FlightAware ADS-B (KWWD)
Wed 11:24:51 AM 39.8827 -75.6834 16° North 250 288 4,400  Level FlightAware ADS-B (KWWD)
Wed 11:25:10 AM 39.9038 -75.6722 22° Northeast 262 302 4,400  Level FlightAware ADS-B (KWWD)
Wed 11:25:31 AM 39.9241 -75.6510 39° Northeast 261 300 4,400  Level FlightAware ADS-B (KWWD)
Wed 11:25:52 AM 39.9414 -75.6270 47° Northeast 268 308 4,400  Level FlightAware ADS-B (KWWD)
Wed 11:26:11 AM 39.9580 -75.6041 47° Northeast 261 300 4,400  Level FlightAware ADS-B (KWWD)
Wed 11:26:27 AM 39.9716 -75.5856 46° Northeast 261 300 4,400  Level FlightAware ADS-B (KWWD)
Wed 11:26:51 AM 39.9923 -75.5576 46° Northeast 261 300 4,400  Level FlightAware ADS-B (KWWD)
Wed 11:27:11 AM 40.0088 -75.5353 46° Northeast 263 303 4,400  Level FlightAware ADS-B (KWWD)
Wed 11:27:28 AM 40.0235 -75.5154 46° Northeast 263 303 4,400  Level FlightAware ADS-B (KWWD)
Wed 11:27:52 AM 40.0432 -75.4886 46° Northeast 256 295 4,400  Level FlightAware ADS-B (KWWD)
Wed 11:28:22 AM 40.0688 -75.4547 46° Northeast 255 293 4,400  Level FlightAware ADS-B (KWWD)
Wed 11:28:40 AM 40.0839 -75.4343 46° Northeast 261 300 4,400  Level FlightAware ADS-B (KWWD)
Wed 11:29:01 AM 40.1013 -75.4102 47° Northeast 262 302 4,400  Level FlightAware ADS-B (KWWD)
Wed 11:29:20 AM 40.1174 -75.3874 47° Northeast 261 300 4,400  Level FlightAware ADS-B (KWWD)
Wed 11:29:41 AM 40.1337 -75.3638 48° Northeast 260 299 4,400  Level FlightAware ADS-B (KWWD)
Wed 11:30:01 AM 40.1508 -75.3401 47° Northeast 261 300 4,400  Level FlightAware ADS-B (KWWD)
Wed 11:30:20 AM 40.1665 -75.3185 46° Northeast 260 299 4,400  Level FlightAware ADS-B (KWWD)
Wed 11:31:27 AM 40.2214 -75.2430 46° Northeast 258 297 4,400 -244 Level FlightAware ADS-B (KWWD)
Wed 11:32:23 AM 40.2667 -75.1833 46° Northeast 263 303 3,900 -288 Descending New York TRACON
Wed 11:33:11 AM 40.3000 -75.1333 49° Northeast 267 307 3,900  Level New York TRACON
Wed 11:34:17 AM 40.3667 -75.0500 44° Northeast 266 306 3,900  Level New York TRACON
Wed 11:35:17 AM 40.4167 -75.0000 37° Northeast 271 312 3,900  Level New York TRACON
Wed 11:36:11 AM 40.4833 -74.9667 21° North 272 313 3,900 -105 Level New York TRACON
Wed 11:37:11 AM 40.5500 -74.9333 21° North 268 308 3,700 -474 Descending New York TRACON
Wed 11:38:05 AM 40.6000 -74.8667 45° Northeast 266 306 3,000 -228 Descending New York TRACON
Wed 11:43:20 AM 40.7121 -74.4965 45° Northeast 153 176 2,300 -99 Descending FlightAware ADS-B
Wed 11:44:08 AM 40.7379 -74.4730 35° Northeast 142 163 2,400  Climbing FlightAware ADS-B
Wed 11:44:16 AM 40.7422 -74.4691 34° Northeast 148 170 2,300 -1,154 Descending FlightAware ADS-B
Wed 11:44:34 AM 40.7521 -74.4586 39° Northeast 148 170 1,900 -1,167 Descending FlightAware ADS-B
Wed 11:44:52 AM 40.7620 -74.4489 37° Northeast 149 171 1,600 -1,000 Descending FlightAware ADS-B
Wed 11:53:00 AM 40.7833 -74.4000 62° Northeast  Level FlightAware Approximate
Wed 11:54:00 AM 40.7993 -74.4149 62° Northeast  Level Estimated

Login

Don't have an account? Register now (free) for customized features, flight alerts, and more!